Weather in Golfito

Costa Rica     8°37′58″N   83°09′40″W
temp.,
°C
wind,
m/s
gust,
m/s
humid.,
%
clouds,
%
prec.,
mm/h
press.,
hPa
HPBL,
m
16 october, sat
sat1600:00+22n1297100 0.5 101167
03:00+22n119680 0.0 101120
06:00+22nnw1195100 0.1 101233
09:00+27w117957 0.3 1014667
12:00+27wsw2283100 3.5 1011605
15:00+23wnw1196100 14.4 101056
18:00+23nw1198100 26.2 101228
21:00+22n1299100 10.5 1014106
17 october, sun
sun1700:00+22n1197100 12.1 101331
03:00+22ese1196100 0.0 101246
06:00+21nnw1197100 0.9 101335
09:00+24ssw1188100 0.0 1014380
12:00+25sse118492 0.1 1012481
15:00+26s127799 2.0 1010729
18:00+23e119497 3.6 101219
21:00+22e119486 0.5 101419
18 october, mon
mon1800:00+22e119599 0.5 101222
03:00+21ene119574 0.1 101119
06:00+21ene119316 0.1 101227
09:00+27s127426 0.0 1013752
12:00+27s227569 0.8 1011843
15:00+24s249496 3.3 1009486
18:00+22e1197100 9.2 101133
21:00+22ene1197100 5.9 101344
19 october, tue
tue1900:00+21e1298100 7.4 101265
03:00+21e1196100 1.1 101128
06:00+22ese1195100 1.6 101246
09:00+24se139081 0.6 1014346
12:00+24sse2591100 1.8 1012494
15:00+24se2489100 1.3 1011462
18:00+22ese119799 2.7 101347
21:00+22e0098100 3.2 101434
20 october, wed
wed2000:00+22nw1198100 5.9 101451
03:00+22n129891 2.6 101266
06:00+21ene119769 4.5 101437
09:00+25sw1187100 1.3 1016413
12:00+26ssw128592 6.5 1014750
15:00+25sw119066 7.6 1012362
18:00+22nnw019769 13.4 101416
21:00+22nnw129753 0.9 101557